Tracking 31027 objects as of 19-Jul-2025
HD Live streaming from Space Station
objects crossing your sky now

OBJECT N

Track OBJECT N now!
10-day predictions


NORAD ID: 56858
Int'l Code: 2023-081N
Perigee: 353.2 km
Apogee: 358.5 km
Inclination: 97.3 °
Period: 91.5 minutes
Semi major axis: 6726 km
RCS: Unknown
Launch date: June 7, 2023
Source: (TBD)
Launch site: Jiuquan Satellite Launch Center, China (JSC)
Your satellite tracking list
DELTA 1 DEB
Track 1 satellite(s)




NASA's NSSDC Master Catalog

Two Line Element Set (TLE):
1 56858U 23081N   25199.78875418  .00141663  00000-0  10023-2 0  9999
2 56858  97.3271 280.9482 0003926 212.3391 147.7633 15.73561282118222
Source of the keplerian elements: AFSPC